Weather History for KDIK - March, 2013

Change the Weather History Date:

Friday, March 1, 2013

  Actual Average Record
Temperature  
Mean Temperature 28 °F 24 °F  
Max Temperature 41 °F 35 °F 70 °F (1992)
Min Temperature 15 °F 14 °F -28 °F (1962)
Degree Days  
Heating Degree Days 37 41  
Month to date heating degree days 37 41  
Since 1 July heating degree days 6015 6335  
Cooling Degree Days 0 0  
Month to date cooling degree days 0 0  
Year to date cooling degree days 0 0  
Moisture  
Dew Point 21 °F    
Average Humidity 77    
Maximum Humidity 100    
Minimum Humidity 54    
Precipitation  
Precipitation 0.00 in 0.01 in 0.32 in (1953)
Month to date precipitation 0.00 0.01  
Year to date precipitation 0.08 0.64  
Sea Level Pressure  
Sea Level Pressure 30.25 in    
Wind  
Wind Speed 7 mph (SSW)    
Max Wind Speed 17 mph    
Max Gust Speed 21 mph    
Visibility 6 miles    
Events Fog    
T = Trace of Precipitation, MM = Missing Value Source: NWS Daily Summary

Daily Weather History Graph

Daily Weather History Graph

Search for Another Location

Airport or City:

Trip Planner

Search our weather history database for the weather conditions in past years. The results will help you decide how hot, cold, wet, or windy it might be!

Date:

Astronomy

Mar. 01, 2013 Rise Set
Actual Time 6:30 AM MST 5:37 PM MST
Civil Twilight 5:59 AM MST 6:07 PM MST
Nautical Twilight 5:24 AM MST 6:42 PM MST
Astronomical Twilight 4:49 AM MST 7:18 PM MST
Moon 10:34 PM MST (3/1) 7:59 AM MST (3/1)
Length of Visible Light 12h 07m
Length of Day
11h 07m
Waning Gibbous, 83% of the Moon is Illuminated
Mar 1
Waning Gibbous
Mar 4
Last Quarter
Mar 11
New
Mar 19
First Quarter
Mar 27
Full

Hourly Weather History & Observations

Time (MST) Temp. Windchill Dew Point Humidity Pressure Visibility Wind Dir Wind Speed Gust Speed Precip Events Conditions
12:56 AM 21.0 °F 14.6 °F 17.1 °F 85% 30.26 in 8.0 mi SE 4.6 mph - N/A   Clear
2:56 AM 18.0 °F 9.8 °F 15.1 °F 88% 30.28 in 6.0 mi NW 5.8 mph - N/A   Clear
3:32 AM 17.6 °F 8.2 °F 14.0 °F 86% 30.18 in 6.0 mi WNW 6.9 mph - N/A   Scattered Clouds
3:40 AM 15.8 °F 6.1 °F 14.0 °F 93% 30.18 in 5.0 mi WNW 6.9 mph - N/A   Mostly Cloudy
3:49 AM 15.8 °F 6.1 °F 14.0 °F 93% 30.19 in 5.0 mi WNW 6.9 mph - N/A   Scattered Clouds
3:56 AM 16.0 °F 6.3 °F 14.0 °F 92% 30.30 in 6.0 mi WNW 6.9 mph - N/A   Scattered Clouds
4:17 AM 17.6 °F 8.2 °F 15.8 °F 93% 30.19 in 5.0 mi NW 6.9 mph - N/A   Mostly Cloudy
4:56 AM 19.9 °F 12.1 °F 18.0 °F 92% 30.31 in 5.0 mi NNW 5.8 mph - N/A   Overcast
5:49 AM 19.4 °F 14.3 °F 19.4 °F 100% 30.23 in 2.0 mi NNE 3.5 mph - N/A   Overcast
5:56 AM 21.0 °F 16.2 °F 19.0 °F 92% 30.35 in 1.5 mi NNE 3.5 mph - N/A   Overcast
6:08 AM 21.2 °F 16.4 °F 19.4 °F 93% 30.24 in 0.5 mi NNE 3.5 mph - N/A Fog Light Freezing Fog
6:34 AM 21.2 °F - 19.4 °F 93% 30.23 in 0.2 mi Calm Calm - N/A Fog Light Freezing Fog
6:56 AM 21.9 °F - 21.0 °F 96% 30.35 in 0.2 mi Calm Calm - N/A Fog Light Freezing Fog
7:56 AM 24.1 °F 19.7 °F 21.9 °F 91% 30.36 in 0.2 mi North 3.5 mph - N/A Fog Light Freezing Fog
8:08 AM 23.0 °F 18.4 °F 21.2 °F 93% 30.25 in 0.5 mi Variable 3.5 mph - N/A Fog Light Freezing Fog
8:33 AM 24.8 °F - 21.2 °F 86% 30.26 in 1.8 mi Calm Calm - N/A   Overcast
8:40 AM 23.0 °F 18.4 °F 21.2 °F 93% 30.26 in 2.0 mi WNW 3.5 mph - N/A   Overcast
8:56 AM 24.1 °F - 21.9 °F 91% 30.36 in 1.8 mi Calm Calm - N/A   Overcast
9:14 AM 24.8 °F - 21.2 °F 86% 30.25 in 2.0 mi Calm Calm - N/A   Overcast
9:39 AM 24.8 °F - 23.0 °F 93% 30.25 in 3.0 mi Calm Calm - N/A   Overcast
9:56 AM 25.0 °F - 23.0 °F 92% 30.36 in 3.0 mi Calm Calm - N/A   Overcast
10:56 AM 26.1 °F - 23.0 °F 88% 30.36 in 5.0 mi Calm Calm - N/A   Overcast
11:33 AM 28.4 °F 21.2 °F 24.8 °F 86% 30.23 in 8.0 mi South 6.9 mph - N/A   Mostly Cloudy
11:56 AM 28.9 °F 22.8 °F 25.0 °F 85% 30.33 in 10.0 mi SSE 5.8 mph - N/A   Mostly Cloudy
12:10 PM 30.2 °F 22.6 °F 24.8 °F 80% 30.21 in 10.0 mi SSE 8.1 mph - N/A   Scattered Clouds
12:56 PM 36.0 °F 29.6 °F 26.1 °F 67% 30.29 in 10.0 mi South 8.1 mph - N/A   Clear
3:56 PM 39.9 °F 32.9 °F 25.0 °F 55% 30.25 in 10.0 mi SSE 11.5 mph - N/A   Scattered Clouds
4:56 PM 37.0 °F 29.8 °F 25.0 °F 62% 30.25 in 10.0 mi SE 10.4 mph - N/A   Overcast
5:56 PM 34.0 °F 26.0 °F 26.1 °F 73% 30.25 in 10.0 mi SE 10.4 mph - N/A   Mostly Cloudy
6:56 PM 33.1 °F 23.4 °F 25.0 °F 72% 30.22 in 10.0 mi SSE 13.8 mph - N/A   Clear
7:56 PM 33.1 °F 23.4 °F 24.1 °F 70% 30.20 in 10.0 mi South 13.8 mph - N/A   Mostly Cloudy
8:56 PM 30.9 °F 20.7 °F 24.1 °F 76% 30.18 in 10.0 mi South 13.8 mph - N/A   Clear
9:56 PM 30.9 °F 20.2 °F 24.1 °F 76% 30.17 in 10.0 mi South 15.0 mph - N/A   Partly Cloudy
10:56 PM 30.9 °F 21.7 °F 24.1 °F 76% 30.15 in 10.0 mi South 11.5 mph - N/A   Mostly Cloudy
11:56 PM 30.0 °F 20.5 °F 24.1 °F 79% 30.13 in 10.0 mi South 11.5 mph - N/A   Mostly Cloudy